{"data":{"norad_id":45132,"epoch":"2026-09-20T03:23:20.372928Z","epoch_age_seconds":45455,"freshness":"FRESH","line1":"1 45132U 20008B   26263.14120802  .00000322  00000+0  88716-3 0  9991","line2":"2 45132  87.8909  17.3656 0001533 102.7183 257.4116 13.10375771320387","mean_motion":13.10375771,"eccentricity":0.0001533,"inclination_deg":87.8909,"raan_deg":17.3656,"arg_perigee_deg":102.7183,"mean_anomaly_deg":257.4116,"bstar":0.00088716,"rev_number":32038,"period_min":109.89214177099,"perigee_km":1220.5406732383,"apogee_km":1222.8707850191,"semimajor_km":7599.8427291287,"source":"CELESTRAK","updated_at":"2026-09-20T09:00:44.545012Z"}}